Location: Newark
(49.8969°N, 3.3422°E)
Time: 14:27:26
(UTC+00:00)

Tiros 1 - Pass Details

Date: 10 May 2021
Orbit: 630 x 664 km, 48.4° (Epoch: 11 June)

Event Time Altitude Azimuth Distance (km) Brightness Sun altitude
Exits shadow 01:29:21 27° 161° (SSE) 1,259 8.2 -18.5°
Maximum altitude 01:29:57 28° 147° (SSE) 1,235 8.3 -18.4°
Drops below altitude 10° 01:33:59 10° 90° (E) 2,060 10.1 -18.2°
Sets 01:36:34 0° 78° (ENE) 2,967 11.2 -18.0°
